Sunlight Mountain, CO

2:31 PM MDT on August 18, 2017 (GMT -0600)
Sunlight Mountain

Weather History for K5SM - October, 2013

Change the Weather History Date:

Sunday, October 6, 2013

  Actual Average (KRIL) Record (KRIL)
Temperature  
Mean Temperature 34 °F -  
Max Temperature 46 °F 71 °F 86 °F (1956)
Min Temperature 23 °F 34 °F 22 °F (1937)
Degree Days  
Heating Degree Days 30    
Moisture  
Dew Point 23 °F    
Average Humidity 60    
Maximum Humidity 86    
Minimum Humidity 44    
Precipitation  
Precipitation 0.00 in - - ()
Sea Level Pressure  
Sea Level Pressure 30.54 in    
Wind  
Wind Speed 4 mph (NNE)    
Max Wind Speed 9 mph    
Max Gust Speed -    
Visibility 10 miles    
Events      
Averages and records for this station are not official NWS values.
T = Trace of Precipitation, MM = Missing Value Source: NWS Daily Summary

Daily Weather History Graph

Daily Weather History Graph

Search for Another Location

Airport or City:

Trip Planner

Search our weather history database for the weather conditions in past years. The results will help you decide how hot, cold, wet, or windy it might be!

Date:

Astronomy

Oct. 06, 2013 Rise Set
Actual Time 7:10 AM MDT 6:43 PM MDT
Civil Twilight 6:43 AM MDT 7:10 PM MDT
Nautical Twilight 6:12 AM MDT 7:41 PM MDT
Astronomical Twilight 5:41 AM MDT 8:12 PM MDT
Moon 8:57 AM MDT (10/6) 7:45 PM MDT (10/6)
Length of Visible Light 12h 26m
Length of Day
11h 32m
Waxing Crescent, 4% of the Moon is Illuminated
Oct 6
Waxing Crescent
Oct 11
First Quarter
Oct 18
Full
Oct 26
Last Quarter
Nov 3
New

Hourly Weather History & Observations

Time (MDT) Temp. Windchill Dew Point Humidity Pressure Visibility Wind Dir Wind Speed Gust Speed Precip Events Conditions
12:01 AM 23.0 °F 14.7 °F 15.8 °F 74% 30.52 in 10.0 mi NNE 6.9 mph - N/A   Clear
12:21 AM 23.0 °F 14.7 °F 15.8 °F 74% 30.51 in 10.0 mi NNE 6.9 mph - N/A   Clear
12:41 AM 23.0 °F 14.7 °F 17.6 °F 80% 30.52 in 10.0 mi NNE 6.9 mph - N/A   Clear
1:01 AM 26.6 °F 17.5 °F 15.8 °F 64% 30.51 in 10.0 mi North 9.2 mph - N/A   Clear
1:21 AM 26.6 °F 18.2 °F 15.8 °F 64% 30.51 in 10.0 mi NNE 8.1 mph - N/A   Clear
1:41 AM 24.8 °F 16.1 °F 17.6 °F 74% 30.51 in 10.0 mi NNE 8.1 mph - N/A   Clear
2:01 AM 26.6 °F 18.2 °F 19.4 °F 74% 30.51 in 10.0 mi NNE 8.1 mph - N/A   Clear
2:21 AM 26.6 °F 18.2 °F 19.4 °F 74% 30.51 in 10.0 mi NNE 8.1 mph - N/A   Clear
2:41 AM 24.8 °F 16.1 °F 19.4 °F 80% 30.51 in 10.0 mi NNE 8.1 mph - N/A   Clear
3:01 AM 26.6 °F 17.5 °F 19.4 °F 74% 30.51 in 10.0 mi NNE 9.2 mph - N/A   Clear
3:21 AM 26.6 °F 18.2 °F 19.4 °F 74% 30.50 in 10.0 mi NE 8.1 mph - N/A   Clear
3:41 AM 26.6 °F 19.1 °F 19.4 °F 74% 30.50 in 10.0 mi NNE 6.9 mph - N/A   Clear
4:00 AM 24.8 °F 17.9 °F 19.4 °F 80% 30.50 in 10.0 mi NNE 5.8 mph - N/A   Clear
4:21 AM 24.8 °F 20.5 °F 19.4 °F 80% 30.50 in 10.0 mi NNE 3.5 mph - N/A   Clear
4:41 AM 24.8 °F 20.5 °F 21.2 °F 86% 30.51 in 10.0 mi NNE 3.5 mph - N/A   Clear
5:01 AM 24.8 °F 20.5 °F 19.4 °F 80% 30.51 in 10.0 mi NE 3.5 mph - N/A   Clear
5:21 AM 24.8 °F 20.5 °F 19.4 °F 80% 30.51 in 10.0 mi NNE 3.5 mph - N/A   Clear
5:41 AM 26.6 °F 21.2 °F 21.2 °F 80% 30.51 in 10.0 mi NNE 4.6 mph - N/A   Clear
6:01 AM 26.6 °F 22.6 °F 19.4 °F 74% 30.51 in 10.0 mi NNE 3.5 mph - N/A   Clear
6:21 AM 26.6 °F 20.0 °F 19.4 °F 74% 30.51 in 10.0 mi NE 5.8 mph - N/A   Clear
6:41 AM 26.6 °F 21.2 °F 17.6 °F 69% 30.51 in 10.0 mi NNE 4.6 mph - N/A   Clear
7:01 AM 28.4 °F 23.3 °F 14.0 °F 55% 30.51 in 10.0 mi NE 4.6 mph - N/A   Clear
7:21 AM 28.4 °F 24.6 °F 14.0 °F 55% 30.51 in 10.0 mi NNE 3.5 mph - N/A   Clear
7:41 AM 30.2 °F 26.7 °F 14.0 °F 51% 30.52 in 10.0 mi NE 3.5 mph - N/A   Clear
8:01 AM 32.0 °F - 12.2 °F 44% 30.53 in 10.0 mi Calm Calm - N/A   Clear
8:21 AM 30.2 °F 26.7 °F 19.4 °F 64% 30.53 in 10.0 mi ENE 3.5 mph - N/A   Clear
8:41 AM 30.2 °F - 19.4 °F 64% 30.53 in 10.0 mi Calm Calm - N/A   Clear
9:01 AM 33.8 °F - 14.0 °F 44% 30.54 in 10.0 mi Calm Calm - N/A   Clear
9:21 AM 35.6 °F - 17.6 °F 48% 30.55 in 10.0 mi Calm Calm - N/A   Clear
9:41 AM 35.6 °F - 17.6 °F 48% 30.55 in 10.0 mi Calm Calm - N/A   Clear
10:01 AM 35.6 °F - 21.2 °F 56% 30.55 in 10.0 mi Calm Calm - N/A   Clear
10:21 AM 39.2 °F - 21.2 °F 49% 30.56 in 10.0 mi Calm Calm - N/A   Clear
10:41 AM 41.0 °F - 24.8 °F 53% 30.56 in 10.0 mi Calm Calm - N/A   Clear
11:00 AM 41.0 °F - 24.8 °F 53% 30.56 in 10.0 mi Calm Calm - N/A   Clear
11:21 AM 41.0 °F - 24.8 °F 53% 30.56 in 10.0 mi Calm Calm - N/A   Clear
11:41 AM 42.8 °F - 24.8 °F 49% 30.57 in 10.0 mi Calm Calm - N/A   Clear
12:01 PM 42.8 °F - 26.6 °F 53% 30.57 in 10.0 mi Calm Calm - N/A   Clear
12:21 PM 42.8 °F - 26.6 °F 53% 30.57 in 10.0 mi Calm Calm - N/A   Clear
12:40 PM 42.8 °F - 28.4 °F 57% 30.57 in 10.0 mi Calm Calm - N/A   Clear
1:01 PM 42.8 °F - 28.4 °F 57% 30.57 in 10.0 mi Calm Calm - N/A   Clear
1:20 PM 42.8 °F - 30.2 °F 61% 30.56 in 10.0 mi Calm Calm - N/A   Clear
1:41 PM 42.8 °F - 30.2 °F 61% 30.56 in 10.0 mi Calm Calm - N/A   Clear
2:01 PM 44.6 °F - 30.2 °F 57% 30.56 in 10.0 mi Calm Calm - N/A   Clear
2:21 PM 44.6 °F - 30.2 °F 57% 30.56 in 10.0 mi Calm Calm - N/A   Clear
2:41 PM 44.6 °F - 30.2 °F 57% 30.56 in 10.0 mi Calm Calm - N/A   Clear
3:01 PM 44.6 °F - 30.2 °F 57% 30.56 in 10.0 mi Calm Calm - N/A   Clear
3:21 PM 46.4 °F - 32.0 °F 57% 30.56 in 10.0 mi Calm Calm - N/A   Clear
3:40 PM 46.4 °F - 30.2 °F 53% 30.56 in 10.0 mi Calm Calm - N/A   Clear
4:01 PM 46.4 °F - 30.2 °F 53% 30.56 in 10.0 mi Calm Calm - N/A   Clear
4:21 PM 44.6 °F - 28.4 °F 53% 30.56 in 10.0 mi Calm Calm - N/A   Clear
4:41 PM 46.4 °F - 28.4 °F 50% 30.56 in 10.0 mi Calm Calm - N/A   Clear
5:01 PM 46.4 °F - 26.6 °F 46% 30.56 in 10.0 mi Calm Calm - N/A   Clear
5:20 PM 44.6 °F - 24.8 °F 46% 30.56 in 10.0 mi Calm Calm - N/A   Clear
5:41 PM 44.6 °F - 26.6 °F 49% 30.57 in 10.0 mi Calm Calm - N/A   Clear
6:00 PM 42.8 °F - 26.6 °F 53% 30.57 in 10.0 mi Calm Calm - N/A   Clear
6:21 PM 41.0 °F - 24.8 °F 53% 30.57 in 10.0 mi Calm Calm - N/A   Clear
6:41 PM 41.0 °F - 24.8 °F 53% 30.57 in 10.0 mi Calm Calm - N/A   Clear
7:01 PM 37.4 °F - 26.6 °F 65% 30.57 in 10.0 mi Calm Calm - N/A   Clear
7:21 PM 39.2 °F - 24.8 °F 56% 30.57 in 10.0 mi Calm Calm - N/A   Clear
7:41 PM 39.2 °F - 23.0 °F 52% 30.57 in 10.0 mi Calm Calm - N/A   Clear
8:01 PM 41.0 °F - 24.8 °F 53% 30.57 in 10.0 mi Calm Calm - N/A   Clear
8:21 PM 41.0 °F - 23.0 °F 49% 30.58 in 10.0 mi Calm Calm - N/A   Clear
8:41 PM 41.0 °F - 24.8 °F 53% 30.57 in 10.0 mi Calm Calm - N/A   Clear
9:01 PM 41.0 °F - 24.8 °F 53% 30.57 in 10.0 mi Calm Calm - N/A   Clear
9:21 PM 41.0 °F - 24.8 °F 53% 30.57 in 10.0 mi Calm Calm - N/A   Clear
9:41 PM 41.0 °F - 24.8 °F 53% 30.58 in 10.0 mi Calm Calm - N/A   Clear
10:01 PM 41.0 °F 39.0 °F 24.8 °F 53% 30.57 in 10.0 mi East 3.5 mph - N/A   Clear
10:20 PM 41.0 °F - 24.8 °F 53% 30.57 in 10.0 mi Calm Calm - N/A   Clear
10:41 PM 41.0 °F - 26.6 °F 57% 30.57 in 10.0 mi Calm Calm - N/A   Clear
11:00 PM 41.0 °F - 24.8 °F 53% 30.57 in 10.0 mi Calm Calm - N/A   Clear
11:21 PM 41.0 °F - 24.8 °F 53% 30.56 in 10.0 mi Calm Calm - N/A   Clear
11:41 PM 41.0 °F - 23.0 °F 49% 30.56 in 10.0 mi Calm Calm - N/A   Clear